This is the latest recevied weather packets stored in our database for station/object KR4DFQ. If no packets are shown the sender has not sent any weather packets the latest 10 day(s).
| Time | Temp. | Humidity | Pressure | Rain* | Wind** | Luminosity | Snow |
|---|---|---|---|---|---|---|---|
| 1787775073 | 31.67° C | 66% | 1016.3 hPa | 0 mm | - | 388 W/m² | - |
| 1787774773 | 31.67° C | 66% | 1016.3 hPa | 0 mm | - | 361 W/m² | - |
| 1787774467 | 31.67° C | 66% | 1016.4 hPa | 0 mm | - | 345 W/m² | - |
| 1787774166 | 31.67° C | 66% | 1016.4 hPa | 0 mm | - | 333 W/m² | - |
| 1787773865 | 31.67° C | 66% | 1016.5 hPa | 0 mm | - | 329 W/m² | - |
| 1787773564 | 31.67° C | 67% | 1016.8 hPa | 0 mm | - | 311 W/m² | - |
| 1787773261 | 31.67° C | 66% | 1016.8 hPa | 0 mm | - | 292 W/m² | - |
| 1787772955 | 31.11° C | 66% | 1017 hPa | 0 mm | - | 270 W/m² | - |
| 1787772651 | 31.11° C | 67% | 1017.1 hPa | 0 mm | - | 249 W/m² | - |
| 1787772349 | 31.11° C | 67% | 1017 hPa | 0 mm | - | 210 W/m² | - |
| 1787772048 | 30.56° C | 67% | 1017.1 hPa | 0 mm | - | 206 W/m² | - |
| 1787771749 | 30° C | 66% | 1017.2 hPa | 0 mm | - | 200 W/m² | - |
| 1787771447 | 30° C | 67% | 1017.2 hPa | 0 mm | - | 187 W/m² | - |
| 1787771146 | 29.44° C | 67% | 1017.2 hPa | 0 mm | - | 170 W/m² | - |
| 1787770843 | 28.89° C | 68% | 1017.3 hPa | 0 mm | - | 155 W/m² | - |
| 1787770541 | 28.89° C | 67% | 1016.9 hPa | 0 mm | - | 152 W/m² | - |
| 1787770241 | 28.89° C | 68% | 1017.1 hPa | 0 mm | - | 149 W/m² | - |
| 1787769939 | 28.89° C | 66% | 1017.1 hPa | 0 mm | - | 147 W/m² | - |
| 1787769635 | 28.89° C | 65% | 1017 hPa | 0 mm | - | 145 W/m² | - |
| 1787769332 | 28.33° C | 66% | 1017.1 hPa | 0 mm | - | 140 W/m² | - |
| 1787769028 | 28.33° C | 67% | 1017.2 hPa | 0 mm | - | 123 W/m² | - |
| 1787768723 | 28.33° C | 66% | 1017.5 hPa | 0 mm | - | 93 W/m² | - |
| 1787768420 | 28.89° C | 66% | 1017.6 hPa | 0 mm | - | 66 W/m² | - |
| 1787768116 | 29.44° C | 63% | 1018 hPa | 0 mm | - | 58 W/m² | - |
| 1787767815 | 30° C | 61% | 1017.8 hPa | 0 mm | - | 72 W/m² | - |
* Rain latest hour (hover to see other rain measurements)
** Current wind speed in m/s (hover to see current wind gust speed)